Location: Wildcat Hills Observatory
(41.6350°N, 103.6812°W)
Time: 00:49:29
(UTC-07:00)

ALOS 2 - Pass Details

Date: 23 June 2018
Orbit: 630 x 632 km, 97.9° (Epoch: 20 November)

Event Time Altitude Azimuth Distance (km) Brightness Sun altitude
Exits shadow 23:41:03 29° 84° (E) 1,165 3.8 -22.6°
Maximum altitude 23:41:39 30° 69° (ENE) 1,136 3.9 -22.6°
Drops below altitude 10° 23:45:29 10° 8° (N) 2,023 6.1 -22.9°
Sets 23:47:52 0° 358° (N) 2,936 7.3 -23.0°
